{"data":{"norad_id":62067,"epoch":"2026-09-21T12:06:47.458080Z","epoch_age_seconds":94342,"freshness":"FRESH","line1":"1 62067U 24217L   26264.50471595  .00107104  00000+0  87607-3 0  9996","line2":"2 62067  53.1577 186.3142 0001090  87.3874 272.7269 15.69750267105855","mean_motion":15.69750267,"eccentricity":0.000109,"inclination_deg":53.1577,"raan_deg":186.3142,"arg_perigee_deg":87.3874,"mean_anomaly_deg":272.7269,"bstar":0.00087607,"rev_number":10585,"period_min":91.734337000753,"perigee_km":358.87710955324,"apogee_km":360.3459387315,"semimajor_km":6737.7485241424,"source":"CELESTRAK","updated_at":"2026-09-22T09:00:49.493642Z"}}